Year,Month,Day,Hour,Minute,Value (Times are PST for temperature in C)
2017,06,25,00,00,18.40
2017,06,25,00,01,18.40
2017,06,25,00,02,18.40
2017,06,25,00,03,18.30
2017,06,25,00,04,18.30
2017,06,25,00,05,18.30
2017,06,25,00,06,18.30
2017,06,25,00,07,18.30
2017,06,25,00,08,18.30
2017,06,25,00,09,18.20
2017,06,25,00,10,18.20
2017,06,25,00,11,18.20
2017,06,25,00,12,18.20
2017,06,25,00,13,18.10
2017,06,25,00,14,18.10
2017,06,25,00,15,18.10
2017,06,25,00,16,18.10
2017,06,25,00,17,18.10
2017,06,25,00,18,18.10
2017,06,25,00,19,18.10
2017,06,25,00,20,18.10
2017,06,25,00,21,18.00
2017,06,25,00,22,18.00
2017,06,25,00,23,18.00
2017,06,25,00,24,17.90
2017,06,25,00,25,17.90
2017,06,25,00,26,17.90
2017,06,25,00,27,17.90
2017,06,25,00,28,17.90
2017,06,25,00,29,17.90
2017,06,25,00,30,17.90
2017,06,25,00,31,17.90
2017,06,25,00,32,17.80
2017,06,25,00,33,17.80
2017,06,25,00,34,17.80
2017,06,25,00,35,17.80
2017,06,25,00,36,17.70
2017,06,25,00,37,17.70
2017,06,25,00,38,17.70
2017,06,25,00,39,17.70
2017,06,25,00,40,17.70
2017,06,25,00,41,17.60
2017,06,25,00,42,17.60
2017,06,25,00,43,17.60
2017,06,25,00,44,17.60
2017,06,25,00,45,17.60
2017,06,25,00,46,17.50
2017,06,25,00,47,17.50
2017,06,25,00,48,17.40
2017,06,25,00,49,17.40
2017,06,25,00,50,17.40
2017,06,25,00,51,17.40
2017,06,25,00,52,17.40
2017,06,25,00,53,17.30
2017,06,25,00,54,17.30
2017,06,25,00,55,17.30
2017,06,25,00,56,17.30
2017,06,25,00,57,17.30
2017,06,25,00,58,17.30
2017,06,25,00,59,17.20
2017,06,25,01,00,17.20
2017,06,25,01,01,17.20
2017,06,25,01,02,17.20
2017,06,25,01,03,17.10
2017,06,25,01,04,17.10
2017,06,25,01,05,17.10
2017,06,25,01,06,17.00
2017,06,25,01,07,17.00
2017,06,25,01,08,17.00
2017,06,25,01,09,16.90
2017,06,25,01,10,16.90
2017,06,25,01,11,16.90
2017,06,25,01,12,16.90
2017,06,25,01,13,16.90
2017,06,25,01,14,16.80
2017,06,25,01,15,16.80
2017,06,25,01,16,16.80
2017,06,25,01,17,16.80
2017,06,25,01,18,16.80
2017,06,25,01,19,16.80
2017,06,25,01,20,16.80
2017,06,25,01,21,16.80
2017,06,25,01,22,16.80
2017,06,25,01,23,16.80
2017,06,25,01,24,16.80
2017,06,25,01,25,16.70
2017,06,25,01,26,16.70
2017,06,25,01,27,16.70
2017,06,25,01,28,16.70
2017,06,25,01,29,16.60
2017,06,25,01,30,16.60
2017,06,25,01,31,16.60
2017,06,25,01,32,16.60
2017,06,25,01,33,16.60
2017,06,25,01,34,16.60
2017,06,25,01,35,16.50
2017,06,25,01,36,16.50
2017,06,25,01,37,16.50
2017,06,25,01,38,16.50
2017,06,25,01,39,16.50
2017,06,25,01,40,16.40
2017,06,25,01,41,16.40
2017,06,25,01,42,16.40
2017,06,25,01,43,16.40
2017,06,25,01,44,16.40
2017,06,25,01,45,16.30
2017,06,25,01,46,16.30
2017,06,25,01,47,16.30
2017,06,25,01,48,16.20
2017,06,25,01,49,16.20
2017,06,25,01,50,16.20
2017,06,25,01,51,16.20
2017,06,25,01,52,16.20
2017,06,25,01,53,16.10
2017,06,25,01,54,16.10
2017,06,25,01,55,16.10
2017,06,25,01,56,16.10
2017,06,25,01,57,16.10
2017,06,25,01,58,16.00
2017,06,25,01,59,16.00
2017,06,25,02,00,16.00
2017,06,25,02,01,15.90
2017,06,25,02,02,15.90
2017,06,25,02,03,15.90
2017,06,25,02,04,15.90
2017,06,25,02,05,15.90
2017,06,25,02,06,15.90
2017,06,25,02,07,15.80
2017,06,25,02,08,15.80
2017,06,25,02,09,15.80
2017,06,25,02,10,15.80
2017,06,25,02,11,15.80
2017,06,25,02,12,15.70
2017,06,25,02,13,15.70
2017,06,25,02,14,15.70
2017,06,25,02,15,15.70
2017,06,25,02,16,15.70
2017,06,25,02,17,15.70
2017,06,25,02,18,15.70
2017,06,25,02,19,15.70
2017,06,25,02,20,15.70
2017,06,25,02,21,15.70
2017,06,25,02,22,15.70
2017,06,25,02,23,15.60
2017,06,25,02,24,15.60
2017,06,25,02,25,15.60
2017,06,25,02,26,15.60
2017,06,25,02,27,15.60
2017,06,25,02,28,15.60
2017,06,25,02,29,15.60
2017,06,25,02,30,15.60
2017,06,25,02,31,15.60
2017,06,25,02,32,15.60
2017,06,25,02,33,15.50
2017,06,25,02,34,15.50
2017,06,25,02,35,15.50
2017,06,25,02,36,15.50
2017,06,25,02,37,15.40
2017,06,25,02,38,15.40
2017,06,25,02,39,15.40
2017,06,25,02,40,15.40
2017,06,25,02,41,15.40
2017,06,25,02,42,15.40
2017,06,25,02,43,15.40
2017,06,25,02,44,15.40
2017,06,25,02,45,15.30
2017,06,25,02,46,15.40
2017,06,25,02,47,15.40
2017,06,25,02,48,15.40
2017,06,25,02,49,15.40
2017,06,25,02,50,15.40
2017,06,25,02,51,15.40
2017,06,25,02,52,15.40
2017,06,25,02,53,15.30
2017,06,25,02,54,15.30
2017,06,25,02,55,15.30
2017,06,25,02,56,15.30
2017,06,25,02,57,15.30
2017,06,25,02,58,15.30
2017,06,25,02,59,15.20
2017,06,25,03,00,15.20
2017,06,25,03,01,15.20
2017,06,25,03,02,15.20
2017,06,25,03,03,15.20
2017,06,25,03,04,15.20
2017,06,25,03,05,15.20
2017,06,25,03,06,15.20
2017,06,25,03,07,15.20
2017,06,25,03,08,15.20
2017,06,25,03,09,15.30
2017,06,25,03,10,15.30
2017,06,25,03,11,15.30
2017,06,25,03,12,15.30
2017,06,25,03,13,15.30
2017,06,25,03,14,15.30
2017,06,25,03,15,15.30
2017,06,25,03,16,15.30
2017,06,25,03,17,15.40
2017,06,25,03,18,15.30
2017,06,25,03,19,15.30
2017,06,25,03,20,15.30
2017,06,25,03,21,15.30
2017,06,25,03,22,15.30
2017,06,25,03,23,15.30
2017,06,25,03,24,15.30
2017,06,25,03,25,15.30
2017,06,25,03,26,15.30
2017,06,25,03,27,15.30
2017,06,25,03,28,15.30
2017,06,25,03,29,15.30
2017,06,25,03,30,15.20
2017,06,25,03,31,15.20
2017,06,25,03,32,15.20
2017,06,25,03,33,15.10
2017,06,25,03,34,15.10
2017,06,25,03,35,15.10
2017,06,25,03,36,15.10
2017,06,25,03,37,15.10
2017,06,25,03,38,15.10
2017,06,25,03,39,15.00
2017,06,25,03,40,15.00
2017,06,25,03,41,15.00
2017,06,25,03,42,15.00
2017,06,25,03,43,15.00
2017,06,25,03,44,14.90
2017,06,25,03,45,14.90
2017,06,25,03,46,14.90
2017,06,25,03,47,14.90
2017,06,25,03,48,14.90
2017,06,25,03,49,14.80
2017,06,25,03,50,14.80
2017,06,25,03,51,14.80
2017,06,25,03,52,14.70
2017,06,25,03,53,14.70
2017,06,25,03,54,14.70
2017,06,25,03,55,14.70
2017,06,25,03,56,14.60
2017,06,25,03,57,14.60
2017,06,25,03,58,14.60
2017,06,25,03,59,14.60
2017,06,25,04,00,14.60
2017,06,25,04,01,14.60
2017,06,25,04,02,14.60
2017,06,25,04,03,14.50
2017,06,25,04,04,14.50
2017,06,25,04,05,14.50
2017,06,25,04,06,14.50
2017,06,25,04,07,14.50
2017,06,25,04,08,14.50
2017,06,25,04,09,14.50
2017,06,25,04,10,14.40
2017,06,25,04,11,14.40
2017,06,25,04,12,14.40
2017,06,25,04,13,14.40
2017,06,25,04,14,14.40
2017,06,25,04,15,14.40
2017,06,25,04,16,14.40
2017,06,25,04,17,14.40
2017,06,25,04,18,14.40
2017,06,25,04,19,14.40
2017,06,25,04,20,14.40
2017,06,25,04,21,14.40
2017,06,25,04,22,14.40
2017,06,25,04,23,14.40
2017,06,25,04,24,14.50
2017,06,25,04,25,14.50
2017,06,25,04,26,14.50
2017,06,25,04,27,14.50
2017,06,25,04,28,14.40
2017,06,25,04,29,14.40
2017,06,25,04,30,14.50
2017,06,25,04,31,14.50
2017,06,25,04,32,14.50
2017,06,25,04,33,14.50
2017,06,25,04,34,14.50
2017,06,25,04,35,14.60
2017,06,25,04,36,14.60
2017,06,25,04,37,14.60
2017,06,25,04,38,14.50
2017,06,25,04,39,14.60
2017,06,25,04,40,14.50
2017,06,25,04,41,14.50
2017,06,25,04,42,14.50
2017,06,25,04,43,14.50
2017,06,25,04,44,14.50
2017,06,25,04,45,14.50
2017,06,25,04,46,14.50
2017,06,25,04,47,14.50
2017,06,25,04,48,14.50
2017,06,25,04,49,14.50
2017,06,25,04,50,14.50
2017,06,25,04,51,14.40
2017,06,25,04,52,14.50
2017,06,25,04,53,14.50
2017,06,25,04,54,14.50
2017,06,25,04,55,14.50
2017,06,25,04,56,14.50
2017,06,25,04,57,14.50
2017,06,25,04,58,14.50
2017,06,25,04,59,14.50
2017,06,25,05,00,14.50
2017,06,25,05,01,14.50
2017,06,25,05,02,14.50
2017,06,25,05,03,14.50
2017,06,25,05,04,14.50
2017,06,25,05,05,14.50
2017,06,25,05,06,14.50
2017,06,25,05,07,14.60
2017,06,25,05,08,14.60
2017,06,25,05,09,14.60
2017,06,25,05,10,14.60
2017,06,25,05,11,14.60
2017,06,25,05,12,14.60
2017,06,25,05,13,14.60
2017,06,25,05,14,14.60
2017,06,25,05,15,14.60
2017,06,25,05,16,14.70
2017,06,25,05,17,14.70
2017,06,25,05,18,14.80
2017,06,25,05,19,14.80
2017,06,25,05,20,14.80
2017,06,25,05,21,14.90
2017,06,25,05,22,15.00
2017,06,25,05,23,15.10
2017,06,25,05,24,15.20
2017,06,25,05,25,15.20
2017,06,25,05,26,15.30
2017,06,25,05,27,15.40
2017,06,25,05,28,15.40
2017,06,25,05,29,15.50
2017,06,25,05,30,15.60
2017,06,25,05,31,15.70
2017,06,25,05,32,15.80
2017,06,25,05,33,15.90
2017,06,25,05,34,15.90
2017,06,25,05,35,16.00
2017,06,25,05,36,16.10
2017,06,25,05,37,16.10
2017,06,25,05,38,16.20
2017,06,25,05,39,16.20
2017,06,25,05,40,16.20
2017,06,25,05,41,16.30
2017,06,25,05,42,16.30
2017,06,25,05,43,16.30
2017,06,25,05,44,16.30
2017,06,25,05,45,16.30
2017,06,25,05,46,16.30
2017,06,25,05,47,16.40
2017,06,25,05,48,16.40
2017,06,25,05,49,16.50
2017,06,25,05,50,16.50
2017,06,25,05,51,16.60
2017,06,25,05,52,16.70
2017,06,25,05,53,16.80
2017,06,25,05,54,17.00
2017,06,25,05,55,17.20
2017,06,25,05,56,17.30
2017,06,25,05,57,17.40
2017,06,25,05,58,17.60
2017,06,25,05,59,17.80
2017,06,25,06,00,17.90
2017,06,25,06,01,18.00
2017,06,25,06,02,18.20
2017,06,25,06,03,18.30
2017,06,25,06,04,18.30
2017,06,25,06,05,18.40
2017,06,25,06,06,18.50
2017,06,25,06,07,18.60
2017,06,25,06,08,18.70
2017,06,25,06,09,18.80
2017,06,25,06,10,18.90
2017,06,25,06,11,18.90
2017,06,25,06,12,19.00
2017,06,25,06,13,19.10
2017,06,25,06,14,19.10
2017,06,25,06,15,19.20
2017,06,25,06,16,19.20
2017,06,25,06,17,19.30
2017,06,25,06,18,19.30
2017,06,25,06,19,19.40
2017,06,25,06,20,19.50
2017,06,25,06,21,19.50
2017,06,25,06,22,19.50
2017,06,25,06,23,19.60
2017,06,25,06,24,19.60
2017,06,25,06,25,19.60
2017,06,25,06,26,19.70
2017,06,25,06,27,19.70
2017,06,25,06,28,19.80
2017,06,25,06,29,19.80
2017,06,25,06,30,19.80
2017,06,25,06,31,19.80
2017,06,25,06,32,19.80
2017,06,25,06,33,19.80
2017,06,25,06,34,19.90
2017,06,25,06,35,20.00
2017,06,25,06,36,20.00
2017,06,25,06,37,20.10
2017,06,25,06,38,20.20
2017,06,25,06,39,20.20
2017,06,25,06,40,20.30
2017,06,25,06,41,20.30
2017,06,25,06,42,20.30
2017,06,25,06,43,20.40
2017,06,25,06,44,20.40
2017,06,25,06,45,20.40
2017,06,25,06,46,20.40
2017,06,25,06,47,20.40
2017,06,25,06,48,20.40
2017,06,25,06,49,20.30
2017,06,25,06,50,20.30
2017,06,25,06,51,20.30
2017,06,25,06,52,20.30
2017,06,25,06,53,20.30
2017,06,25,06,54,20.20
2017,06,25,06,55,20.20
2017,06,25,06,56,20.20
2017,06,25,06,57,20.10
2017,06,25,06,58,20.00
2017,06,25,06,59,20.00
2017,06,25,07,00,19.90
2017,06,25,07,01,19.90
2017,06,25,07,02,19.90
2017,06,25,07,03,19.90
2017,06,25,07,04,20.00
2017,06,25,07,05,20.10
2017,06,25,07,06,20.10
2017,06,25,07,07,20.20
2017,06,25,07,08,20.20
2017,06,25,07,09,20.20
2017,06,25,07,10,20.30
2017,06,25,07,11,20.30
2017,06,25,07,12,20.30
2017,06,25,07,13,20.30
2017,06,25,07,14,20.30
2017,06,25,07,15,20.30
2017,06,25,07,16,20.40
2017,06,25,07,17,20.40
2017,06,25,07,18,20.50
2017,06,25,07,19,20.50
2017,06,25,07,20,20.60
2017,06,25,07,21,20.60
2017,06,25,07,22,20.60
2017,06,25,07,23,20.70
2017,06,25,07,24,20.70
2017,06,25,07,25,20.70
2017,06,25,07,26,20.70
2017,06,25,07,27,20.70
2017,06,25,07,28,20.70
2017,06,25,07,29,20.70
2017,06,25,07,30,20.80
2017,06,25,07,31,20.80
2017,06,25,07,32,20.90
2017,06,25,07,33,20.90
2017,06,25,07,34,20.90
2017,06,25,07,35,21.00
2017,06,25,07,36,21.00
2017,06,25,07,37,21.00
2017,06,25,07,38,21.00
2017,06,25,07,39,21.00
2017,06,25,07,40,21.00
2017,06,25,07,41,21.00
2017,06,25,07,42,21.10
2017,06,25,07,43,21.10
2017,06,25,07,44,21.10
2017,06,25,07,45,21.10
2017,06,25,07,46,21.10
2017,06,25,07,47,21.10
2017,06,25,07,48,21.10
2017,06,25,07,49,21.10
2017,06,25,07,50,21.10
2017,06,25,07,51,21.10
2017,06,25,07,52,21.10
2017,06,25,07,53,21.00
2017,06,25,07,54,21.00
2017,06,25,07,55,21.00
2017,06,25,07,56,21.00
2017,06,25,07,57,21.00
2017,06,25,07,58,21.00
2017,06,25,07,59,21.00
2017,06,25,08,00,21.00
2017,06,25,08,01,21.00
2017,06,25,08,02,21.00
2017,06,25,08,03,21.00
2017,06,25,08,04,21.00
2017,06,25,08,05,21.10
2017,06,25,08,06,21.10
2017,06,25,08,07,21.10
2017,06,25,08,08,21.20
2017,06,25,08,09,21.30
2017,06,25,08,10,21.30
2017,06,25,08,11,21.40
2017,06,25,08,12,21.50
2017,06,25,08,13,21.60
2017,06,25,08,14,21.60
2017,06,25,08,15,21.70
2017,06,25,08,16,21.80
2017,06,25,08,17,21.90
2017,06,25,08,18,22.00
2017,06,25,08,19,22.00
2017,06,25,08,20,22.10
2017,06,25,08,21,22.20
2017,06,25,08,22,22.30
2017,06,25,08,23,22.30
2017,06,25,08,24,22.40
2017,06,25,08,25,22.50
2017,06,25,08,26,22.50
2017,06,25,08,27,22.60
2017,06,25,08,28,22.60
2017,06,25,08,29,22.70
2017,06,25,08,30,22.70
2017,06,25,08,31,22.80
2017,06,25,08,32,22.80
2017,06,25,08,33,22.80
2017,06,25,08,34,22.90
2017,06,25,08,35,22.90
2017,06,25,08,36,22.90
2017,06,25,08,37,23.00
2017,06,25,08,38,23.00
2017,06,25,08,39,23.00
2017,06,25,08,40,23.10
2017,06,25,08,41,23.10
2017,06,25,08,42,23.10
2017,06,25,08,43,23.10
2017,06,25,08,44,23.20
2017,06,25,08,45,23.20
2017,06,25,08,46,23.30
2017,06,25,08,47,23.30
2017,06,25,08,48,23.30
2017,06,25,08,49,23.30
2017,06,25,08,50,23.30
2017,06,25,08,51,23.40
2017,06,25,08,52,23.40
2017,06,25,08,53,23.40
2017,06,25,08,54,23.40
2017,06,25,08,55,23.40
2017,06,25,08,56,23.40
2017,06,25,08,57,23.40
2017,06,25,08,58,23.40
2017,06,25,08,59,23.40
2017,06,25,09,00,23.40
2017,06,25,09,01,23.40
2017,06,25,09,02,23.40
2017,06,25,09,03,23.40
2017,06,25,09,04,23.40
2017,06,25,09,05,23.50
2017,06,25,09,06,23.40
2017,06,25,09,07,23.40
2017,06,25,09,08,23.40
2017,06,25,09,09,23.40
2017,06,25,09,10,23.50
2017,06,25,09,11,23.50
2017,06,25,09,12,23.50
2017,06,25,09,13,23.60
2017,06,25,09,14,23.60
2017,06,25,09,15,23.60
2017,06,25,09,16,23.70
2017,06,25,09,17,23.70
2017,06,25,09,18,23.70
2017,06,25,09,19,23.70
2017,06,25,09,20,23.80
2017,06,25,09,21,23.80
2017,06,25,09,22,23.80
2017,06,25,09,23,23.80
2017,06,25,09,24,23.80
2017,06,25,09,25,23.80
2017,06,25,09,26,23.80
2017,06,25,09,27,23.80
2017,06,25,09,28,23.90
2017,06,25,09,29,23.90
2017,06,25,09,30,23.90
2017,06,25,09,31,24.00
2017,06,25,09,32,24.00
2017,06,25,09,33,24.00
2017,06,25,09,34,24.10
2017,06,25,09,35,24.10
2017,06,25,09,36,24.20
2017,06,25,09,37,24.20
2017,06,25,09,38,24.20
2017,06,25,09,39,24.20
2017,06,25,09,40,24.30
2017,06,25,09,41,24.30
2017,06,25,09,42,24.40
2017,06,25,09,43,24.40
2017,06,25,09,44,24.40
2017,06,25,09,45,24.50
2017,06,25,09,46,24.60
2017,06,25,09,47,24.60
2017,06,25,09,48,24.60
2017,06,25,09,49,24.60
2017,06,25,09,50,24.50
2017,06,25,09,51,24.40
2017,06,25,09,52,24.40
2017,06,25,09,53,24.40
2017,06,25,09,54,24.40
2017,06,25,09,55,24.40
2017,06,25,09,56,24.50
2017,06,25,09,57,24.50
2017,06,25,09,58,24.50
2017,06,25,09,59,24.50
2017,06,25,10,00,24.50
2017,06,25,10,01,24.50
2017,06,25,10,02,24.50
2017,06,25,10,03,24.50
2017,06,25,10,04,24.50
2017,06,25,10,05,24.50
2017,06,25,10,06,24.50
2017,06,25,10,07,24.40
2017,06,25,10,08,24.40
2017,06,25,10,09,24.40
2017,06,25,10,10,24.50
2017,06,25,10,11,24.50
2017,06,25,10,12,24.60
2017,06,25,10,13,24.70
2017,06,25,10,14,24.80
2017,06,25,10,15,24.90
2017,06,25,10,16,25.00
2017,06,25,10,17,25.10
2017,06,25,10,18,25.10
2017,06,25,10,19,25.10
2017,06,25,10,20,25.00
2017,06,25,10,21,25.00
2017,06,25,10,22,24.90
2017,06,25,10,23,24.80
2017,06,25,10,24,24.80
2017,06,25,10,25,24.80
2017,06,25,10,26,24.80
2017,06,25,10,27,24.80
2017,06,25,10,28,24.70
2017,06,25,10,29,24.70
2017,06,25,10,30,24.80
2017,06,25,10,31,24.80
2017,06,25,10,32,24.80
2017,06,25,10,33,24.80
2017,06,25,10,34,24.90
2017,06,25,10,35,24.90
2017,06,25,10,36,25.00
2017,06,25,10,37,25.00
2017,06,25,10,38,25.10
2017,06,25,10,39,25.00
2017,06,25,10,40,25.00
2017,06,25,10,41,25.00
2017,06,25,10,42,25.00
2017,06,25,10,43,25.00
2017,06,25,10,44,25.10
2017,06,25,10,45,25.10
2017,06,25,10,46,25.10
2017,06,25,10,47,25.10
2017,06,25,10,48,25.10
2017,06,25,10,49,25.20
2017,06,25,10,50,25.20
2017,06,25,10,51,25.20
2017,06,25,10,52,25.10
2017,06,25,10,53,25.00
2017,06,25,10,54,25.00
2017,06,25,10,55,24.90
2017,06,25,10,56,24.90
2017,06,25,10,57,24.90
2017,06,25,10,58,24.90
2017,06,25,10,59,25.00
2017,06,25,11,00,25.00
2017,06,25,11,01,25.10
2017,06,25,11,02,25.10
2017,06,25,11,03,25.20
2017,06,25,11,04,25.20
2017,06,25,11,05,25.20
2017,06,25,11,06,25.20
2017,06,25,11,07,25.20
2017,06,25,11,08,25.20
2017,06,25,11,09,25.10
2017,06,25,11,10,25.00
2017,06,25,11,11,24.90
2017,06,25,11,12,24.80
2017,06,25,11,13,24.80
2017,06,25,11,14,24.70
2017,06,25,11,15,24.70
2017,06,25,11,16,24.70
2017,06,25,11,17,24.70
2017,06,25,11,18,24.80
2017,06,25,11,19,24.80
2017,06,25,11,20,24.90
2017,06,25,11,21,24.90
2017,06,25,11,22,24.90
2017,06,25,11,23,25.00
2017,06,25,11,24,25.10
2017,06,25,11,25,25.10
2017,06,25,11,26,25.10
2017,06,25,11,27,25.10
2017,06,25,11,28,25.10
2017,06,25,11,29,25.10
2017,06,25,11,30,25.10
2017,06,25,11,31,25.10
2017,06,25,11,32,25.10
2017,06,25,11,33,25.10
2017,06,25,11,34,25.00
2017,06,25,11,35,25.00
2017,06,25,11,36,24.90
2017,06,25,11,37,24.90
2017,06,25,11,38,24.80
2017,06,25,11,39,24.80
2017,06,25,11,40,24.80
2017,06,25,11,41,24.90
2017,06,25,11,42,24.90
2017,06,25,11,43,24.90
2017,06,25,11,44,24.90
2017,06,25,11,45,24.90
2017,06,25,11,46,24.90
2017,06,25,11,47,24.90
2017,06,25,11,48,25.00
2017,06,25,11,49,25.00
2017,06,25,11,50,25.10
2017,06,25,11,51,25.10
2017,06,25,11,52,25.10
2017,06,25,11,53,25.00
2017,06,25,11,54,25.00
2017,06,25,11,55,24.90
2017,06,25,11,56,24.80
2017,06,25,11,57,24.80
2017,06,25,11,58,24.80
2017,06,25,11,59,24.80
2017,06,25,12,00,24.70
2017,06,25,12,01,24.80
2017,06,25,12,02,24.80
2017,06,25,12,03,24.80
2017,06,25,12,04,24.70
2017,06,25,12,05,24.70
2017,06,25,12,06,24.70
2017,06,25,12,07,24.70
2017,06,25,12,08,24.80
2017,06,25,12,09,24.80
2017,06,25,12,10,24.80
2017,06,25,12,11,24.90
2017,06,25,12,12,24.90
2017,06,25,12,13,24.90
2017,06,25,12,14,24.90
2017,06,25,12,15,24.90
2017,06,25,12,16,24.90
2017,06,25,12,17,24.90
2017,06,25,12,18,24.90
2017,06,25,12,19,25.00
2017,06,25,12,20,25.10
2017,06,25,12,21,25.10
2017,06,25,12,22,25.10
2017,06,25,12,23,25.10
2017,06,25,12,24,25.20
2017,06,25,12,25,25.20
2017,06,25,12,26,25.30
2017,06,25,12,27,25.40
2017,06,25,12,28,25.40
2017,06,25,12,29,25.50
2017,06,25,12,30,25.60
2017,06,25,12,31,25.60
2017,06,25,12,32,25.70
2017,06,25,12,33,25.70
2017,06,25,12,34,25.80
2017,06,25,12,35,25.90
2017,06,25,12,36,26.00
2017,06,25,12,37,26.00
2017,06,25,12,38,26.10
2017,06,25,12,39,26.10
2017,06,25,12,40,26.10
2017,06,25,12,41,26.20
2017,06,25,12,42,26.20
2017,06,25,12,43,26.20
2017,06,25,12,44,26.30
2017,06,25,12,45,26.30
2017,06,25,12,46,26.40
2017,06,25,12,47,26.40
2017,06,25,12,48,26.50
2017,06,25,12,49,26.50
2017,06,25,12,50,26.60
2017,06,25,12,51,26.60
2017,06,25,12,52,26.70
2017,06,25,12,53,26.80
2017,06,25,12,54,27.00
2017,06,25,12,55,27.10
2017,06,25,12,56,27.10
2017,06,25,12,57,27.20
2017,06,25,12,58,27.20
2017,06,25,12,59,27.20
2017,06,25,13,00,27.20
2017,06,25,13,01,27.20
2017,06,25,13,02,27.20
2017,06,25,13,03,27.20
2017,06,25,13,04,27.20
2017,06,25,13,05,27.20
2017,06,25,13,06,27.10
2017,06,25,13,07,27.10
2017,06,25,13,08,27.00
2017,06,25,13,09,27.00
2017,06,25,13,10,26.90
2017,06,25,13,11,26.80
2017,06,25,13,12,26.80
2017,06,25,13,13,26.80
2017,06,25,13,14,26.80
2017,06,25,13,15,26.80
2017,06,25,13,16,26.80
2017,06,25,13,17,26.70
2017,06,25,13,18,26.60
2017,06,25,13,19,26.60
2017,06,25,13,20,26.50
2017,06,25,13,21,26.50
2017,06,25,13,22,26.40
2017,06,25,13,23,26.40
2017,06,25,13,24,26.40
2017,06,25,13,25,26.40
2017,06,25,13,26,26.40
2017,06,25,13,27,26.50
2017,06,25,13,28,26.50
2017,06,25,13,29,26.60
2017,06,25,13,30,26.60
2017,06,25,13,31,26.60
2017,06,25,13,32,26.70
2017,06,25,13,33,26.70
2017,06,25,13,34,26.70
2017,06,25,13,35,26.80
2017,06,25,13,36,26.80
2017,06,25,13,37,26.90
2017,06,25,13,38,26.90
2017,06,25,13,39,27.00
2017,06,25,13,40,27.20
2017,06,25,13,41,27.30
2017,06,25,13,42,27.30
2017,06,25,13,43,27.40
2017,06,25,13,44,27.50
2017,06,25,13,45,27.60
2017,06,25,13,46,27.70
2017,06,25,13,47,27.80
2017,06,25,13,48,27.90
2017,06,25,13,49,28.00
2017,06,25,13,50,28.00
2017,06,25,13,51,28.10
2017,06,25,13,52,28.10
2017,06,25,13,53,28.10
2017,06,25,13,54,28.20
2017,06,25,13,55,28.20
2017,06,25,13,56,28.20
2017,06,25,13,57,28.20
2017,06,25,13,58,28.20
2017,06,25,13,59,28.20
2017,06,25,14,00,28.20
2017,06,25,14,01,28.20
2017,06,25,14,02,28.20
2017,06,25,14,03,28.20
2017,06,25,14,04,28.20
2017,06,25,14,05,28.20
2017,06,25,14,06,28.20
2017,06,25,14,07,28.20
2017,06,25,14,08,28.20
2017,06,25,14,09,28.20
2017,06,25,14,10,28.20
2017,06,25,14,11,28.20
2017,06,25,14,12,28.20
2017,06,25,14,13,28.30
2017,06,25,14,14,28.30
2017,06,25,14,15,28.40
2017,06,25,14,16,28.50
2017,06,25,14,17,28.60
2017,06,25,14,18,28.60
2017,06,25,14,19,28.70
2017,06,25,14,20,28.70
2017,06,25,14,21,28.70
2017,06,25,14,22,28.70
2017,06,25,14,23,28.70
2017,06,25,14,24,28.70
2017,06,25,14,25,28.70
2017,06,25,14,26,28.70
2017,06,25,14,27,28.70
2017,06,25,14,28,28.70
2017,06,25,14,29,28.70
2017,06,25,14,30,28.70
2017,06,25,14,31,28.70
2017,06,25,14,32,28.70
2017,06,25,14,33,28.70
2017,06,25,14,34,28.70
2017,06,25,14,35,28.60
2017,06,25,14,36,28.60
2017,06,25,14,37,28.60
2017,06,25,14,38,28.60
2017,06,25,14,39,28.70
2017,06,25,14,40,28.70
2017,06,25,14,41,28.80
2017,06,25,14,42,28.80
2017,06,25,14,43,28.90
2017,06,25,14,44,29.00
2017,06,25,14,45,29.00
2017,06,25,14,46,29.10
2017,06,25,14,47,29.10
2017,06,25,14,48,29.10
2017,06,25,14,49,29.10
2017,06,25,14,50,29.00
2017,06,25,14,51,29.00
2017,06,25,14,52,28.90
2017,06,25,14,53,28.90
2017,06,25,14,54,28.80
2017,06,25,14,55,28.80
2017,06,25,14,56,28.70
2017,06,25,14,57,28.70
2017,06,25,14,58,28.60
2017,06,25,14,59,28.60
2017,06,25,15,00,28.70
2017,06,25,15,01,28.70
2017,06,25,15,02,28.70
2017,06,25,15,03,28.70
2017,06,25,15,04,28.80
2017,06,25,15,05,28.80
2017,06,25,15,06,28.80
2017,06,25,15,07,28.80
2017,06,25,15,08,28.80
2017,06,25,15,09,28.80
2017,06,25,15,10,28.90
2017,06,25,15,11,28.80
2017,06,25,15,12,28.80
2017,06,25,15,13,28.80
2017,06,25,15,14,28.70
2017,06,25,15,15,28.70
2017,06,25,15,16,28.60
2017,06,25,15,17,28.60
2017,06,25,15,18,28.60
2017,06,25,15,19,28.70
2017,06,25,15,20,28.70
2017,06,25,15,21,28.80
2017,06,25,15,22,28.80
2017,06,25,15,23,28.80
2017,06,25,15,24,28.80
2017,06,25,15,25,28.70
2017,06,25,15,26,28.70
2017,06,25,15,27,28.70
2017,06,25,15,28,28.60
2017,06,25,15,29,28.60
2017,06,25,15,30,28.70
2017,06,25,15,31,28.70
2017,06,25,15,32,28.70
2017,06,25,15,33,28.70
2017,06,25,15,34,28.70
2017,06,25,15,35,28.70
2017,06,25,15,36,28.80
2017,06,25,15,37,28.80
2017,06,25,15,38,28.80
2017,06,25,15,39,28.80
2017,06,25,15,40,28.80
2017,06,25,15,41,28.80
2017,06,25,15,42,28.80
2017,06,25,15,43,28.80
2017,06,25,15,44,28.80
2017,06,25,15,45,28.70
2017,06,25,15,46,28.50
2017,06,25,15,47,28.20
2017,06,25,15,48,27.90
2017,06,25,15,49,27.60
2017,06,25,15,50,27.30
2017,06,25,15,51,27.00
2017,06,25,15,52,26.80
2017,06,25,15,53,26.70
2017,06,25,15,54,26.70
2017,06,25,15,55,26.70
2017,06,25,15,56,26.70
2017,06,25,15,57,26.80
2017,06,25,15,58,26.80
2017,06,25,15,59,26.90
2017,06,25,16,00,26.90
2017,06,25,16,01,26.90
2017,06,25,16,02,27.00
2017,06,25,16,03,27.10
2017,06,25,16,04,27.30
2017,06,25,16,05,27.40
2017,06,25,16,06,27.60
2017,06,25,16,07,27.70
2017,06,25,16,08,27.80
2017,06,25,16,09,28.00
2017,06,25,16,10,28.10
2017,06,25,16,11,28.10
2017,06,25,16,12,28.10
2017,06,25,16,13,28.00
2017,06,25,16,14,28.00
2017,06,25,16,15,28.00
2017,06,25,16,16,28.00
2017,06,25,16,17,28.00
2017,06,25,16,18,28.00
2017,06,25,16,19,28.10
2017,06,25,16,20,28.10
2017,06,25,16,21,28.00
2017,06,25,16,22,27.90
2017,06,25,16,23,27.90
2017,06,25,16,24,28.00
2017,06,25,16,25,28.00
2017,06,25,16,26,28.10
2017,06,25,16,27,28.10
2017,06,25,16,28,28.20
2017,06,25,16,29,28.30
2017,06,25,16,30,28.30
2017,06,25,16,31,28.30
2017,06,25,16,32,28.30
2017,06,25,16,33,28.30
2017,06,25,16,34,28.20
2017,06,25,16,35,28.20
2017,06,25,16,36,28.20
2017,06,25,16,37,28.30
2017,06,25,16,38,28.30
2017,06,25,16,39,28.30
2017,06,25,16,40,28.40
2017,06,25,16,41,28.40
2017,06,25,16,42,28.40
2017,06,25,16,43,28.50
2017,06,25,16,44,28.50
2017,06,25,16,45,28.50
2017,06,25,16,46,28.60
2017,06,25,16,47,28.60
2017,06,25,16,48,28.70
2017,06,25,16,49,28.70
2017,06,25,16,50,28.80
2017,06,25,16,51,28.90
2017,06,25,16,52,28.90
2017,06,25,16,53,29.00
2017,06,25,16,54,29.00
2017,06,25,16,55,29.10
2017,06,25,16,56,29.10
2017,06,25,16,57,29.20
2017,06,25,16,58,29.20
2017,06,25,16,59,29.20
2017,06,25,17,00,29.10
2017,06,25,17,01,29.10
2017,06,25,17,02,29.00
2017,06,25,17,03,28.90
2017,06,25,17,04,28.80
2017,06,25,17,05,28.80
2017,06,25,17,06,28.80
2017,06,25,17,07,28.70
2017,06,25,17,08,28.70
2017,06,25,17,09,28.70
2017,06,25,17,10,28.70
2017,06,25,17,11,28.70
2017,06,25,17,12,28.70
2017,06,25,17,13,28.70
2017,06,25,17,14,28.60
2017,06,25,17,15,28.60
2017,06,25,17,16,28.50
2017,06,25,17,17,28.50
2017,06,25,17,18,28.50
2017,06,25,17,19,28.40